Regional Weather Roundup
Issued by NWS

Home | Current Version | Previous Version | Graphics & Text | Print | Product List | Glossary On
Versions: 1 2 3 4 5 6 7 8 9 10 11 12 13 14 15 16 17 18 19 20 21 22 23 24 25 26 27 28 29 30 31 32 33 34 35 36 37 38 39 40 41 42 43 44 45 46 47 48 49 50
354
ASUS43 KTOP 242008
RWRKS

WEATHER ROUNDUP FOR KANSAS
NATIONAL WEATHER SERVICE GOODLAND KS
300 PM CDT TUE MAY 24 2016

NOTE:  "FAIR" INDICATES FEW OR NO CLOUDS BELOW 12,000 FEET WITH NO
SIGNIFICANT WEATHER AND/OR OBSTRUCTIONS TO VISIBILITY.

KSZ001>006-013>018-027>032-041>047-242100-
NORTHWEST KANSAS

CITY           SKY/WX    TMP DP  RH WIND       PRES   REMARKS
GOODLAND       CLOUDY    72  59  63 SE16G25   29.89F
HAYS           MOSUNNY   81  57  44 SE23      29.86F
HILL CITY      SUNNY     78  59  51 SE20G26   29.87F
RUSSELL        SUNNY     78  63  59 SE18G30   29.86F
$$

KSZ061>065-074>080-084>089-242100-
SOUTHWEST KANSAS

CITY           SKY/WX    TMP DP  RH WIND       PRES   REMARKS
DODGE CITY     PTSUNNY   80  69  69 SE14      29.84F
ELKHART          N/A     84  55  36 S9          N/A
GARDEN CITY    PTSUNNY   84  66  54 SE24G35   29.81F
GREAT BEND     PTSUNNY   82  64  54 SE18G24   29.86F
LIBERAL        SUNNY     90  57  33 S13       29.82F
PRATT          PTSUNNY   79  66  65 S14       29.87S
$$

KSZ066>073-081>083-090>101-242100-
SOUTHEAST KANSAS

CITY           SKY/WX    TMP DP  RH WIND       PRES   REMARKS
CHANUTE        MOSUNNY   78  68  71 E8        29.92F
COFFEYVILLE    MOSUNNY   85  72  65 SE12      29.91F
HUTCHINSON     PTSUNNY   81  68  64 SE13      29.87F
MEDICINE LODGE   N/A     85  68  56 S12G23    29.83F
NEWTON         SUNNY     79  63  57 SE17G23   29.92
PARSONS        MOSUNNY   82  72  71 VRB5      29.93F
WICHITA INTL   MOSUNNY   81  71  71 SE16      29.87F
WICHITA JABRA  PTSUNNY   78  69  73 SE14G22   29.88F
WICHITA MCCONL MOSUNNY   80  70  72 SE15      29.88F
WINFIELD       CLOUDY    83  71  67 SE14      29.90R
$$

KSZ007>012-019>026-033>040-048>060-102>105-242100-
NORTHEAST KANSAS

CITY           SKY/WX    TMP DP  RH WIND       PRES   REMARKS
CONCORDIA      SUNNY     80  60  50 S18       29.88F
EMPORIA        SUNNY     78  65  63 SE17G24   29.89F
LAWRENCE       MOSUNNY   79  65  62 SE21      29.88F
MANHATTAN      SUNNY     82  59  45 SE13G21   29.88S
MARYSVILLE     CLOUDY    79  63  57 S3        29.90R
OLATHE IND     CLOUDY    75  67  76 SE18G26   29.90F
OLATHE EXE     CLOUDY    74  66  76 S17G25    29.90F
SALINA         SUNNY     82  62  50 SE17      29.88F
TOPEKA BILLARD SUNNY     81  62  52 SE15      29.88R
TOPEKA FORBES  SUNNY     81  63  54 SE16G24   29.88S
$$




USA.gov is the U.S. government's official web portal to all federal, state and local government web resources and services.